Location: Bu�n Treun
(12.1333°N, 108.3167°E)
Time: 23:41:55
(UTC+00:00)

Cosmos 1975 Rocket - Pass Details

Date: 13 July 2020
Orbit: 605 x 633 km, 82.5° (Epoch: 14 August)

Event Time Altitude Azimuth Distance (km) Brightness Sun altitude
Rises 21:13:41 0° 342° (NNW) 2,903 6.6 -17.6°
Reaches altitude 10° 21:16:03 10° 334° (NNW) 2,000 5.7 -17.1°
Maximum altitude 21:20:06 36° 268° (W) 1,002 3.6 -16.2°
Enters shadow 21:21:51 26° 223° (SW) 1,251 4.1 -15.8°
